Location: Ciserano
(45.5833°N, 9.6000°E)
Time: 05:16:15
(UTC+00:00)

SJ 16-02 - Pass Details

Date: 29 November 2020
Orbit: 606 x 616 km, 75.0° (Epoch: 24 January)

Event Time Altitude Azimuth Distance (km) Brightness Sun altitude
Exits shadow 04:46:10 37° 321° (NW) 970 1.9 -19.3°
Drops below altitude 10° 04:49:37 10° 6° (N) 1,987 3.9 -18.7°
Sets 04:52:00 0° 14° (NNE) 2,898 4.8 -18.3°
